This is the latest recevied weather packets stored in our database for station/object WB3EGK. If no packets are shown the sender has not sent any weather packets the latest 10 day(s).
| Time | Temp. | Humidity | Pressure | Rain* | Wind** | Luminosity | Snow |
|---|---|---|---|---|---|---|---|
| 1777591849 | 8.33° C | 1% | 1011.2 hPa | 0 mm | - | 49 W/m² | - |
| 1777591545 | 8.33° C | 1% | 1011.1 hPa | 0 mm | - | 59 W/m² | - |
| 1777591242 | 8.89° C | 1% | 1010.8 hPa | 0 mm | - | 62 W/m² | - |
| 1777590937 | 8.89° C | 1% | 1010.9 hPa | 0 mm | - | 82 W/m² | - |
| 1777590633 | 8.33° C | 1% | 1010.8 hPa | 0 mm | - | 113 W/m² | - |
| 1777590329 | 8.33° C | 1% | 1011.1 hPa | 0 mm | - | 70 W/m² | - |
| 1777590027 | 8.89° C | 1% | 1011.1 hPa | 0 mm | - | 79 W/m² | - |
| 1777589723 | 8.89° C | 1% | 1011 hPa | 0 mm | - | 106 W/m² | - |
| 1777589421 | 8.33° C | 1% | 1011 hPa | 0 mm | - | 98 W/m² | - |
| 1777589117 | 8.33° C | 1% | 1011 hPa | 0 mm | - | 72 W/m² | - |
| 1777588813 | 8.33° C | 1% | 1011.1 hPa | 0 mm | - | 30 W/m² | - |
| 1777588509 | 8.89° C | 1% | 1010.9 hPa | 0 mm | - | 38 W/m² | - |
| 1777588205 | 8.89° C | 1% | 1011 hPa | 0 mm | - | 78 W/m² | - |
| 1777587900 | 8.33° C | 1% | 1011 hPa | 0 mm | - | 136 W/m² | - |
| 1777587596 | 8.89° C | 1% | 1011.1 hPa | 0 mm | - | 146 W/m² | - |
| 1777587291 | 8.89° C | 1% | 1011.1 hPa | 0 mm | - | 109 W/m² | - |
| 1777586987 | 8.89° C | 1% | 1011 hPa | 0 mm | - | 227 W/m² | - |
| 1777586683 | 8.89° C | 1% | 1011 hPa | 0 mm | - | 165 W/m² | - |
| 1777586378 | 9.44° C | 1% | 1011.1 hPa | 0 mm | - | 174 W/m² | - |
| 1777586078 | 9.44° C | 1% | 1011.1 hPa | 0 mm | - | 189 W/m² | - |
| 1777585776 | 8.89° C | 1% | 1011.1 hPa | 0 mm | - | 369 W/m² | - |
| 1777585471 | 8.89° C | 1% | 1010.9 hPa | 0 mm | - | 154 W/m² | - |
| 1777585168 | 8.89° C | 1% | 1011 hPa | 0 mm | - | 233 W/m² | - |
| 1777584863 | 8.89° C | 1% | 1010.7 hPa | 0 mm | - | 149 W/m² | - |
| 1777584561 | 8.89° C | 1% | 1010.7 hPa | 0 mm | - | 475 W/m² | - |
* Rain latest hour (hover to see other rain measurements)
** Current wind speed in m/s (hover to see current wind gust speed)